TimeCST,TemperatureF,Dew PointF,Humidity,Sea Level PressureIn,VisibilityMPH,Wind Direction,Wind SpeedMPH,Gust SpeedMPH,PrecipitationIn,Events,Conditions,WindDirDegrees,DateUTC
12:53 AM,17.1,9.0,71,30.29,10.0,Variable,3.5,-,N/A,,Clear,0,2013-01-04 06:53:00
1:53 AM,16.0,8.1,71,30.26,10.0,West,5.8,-,N/A,,Clear,260,2013-01-04 07:53:00
2:53 AM,12.9,6.1,74,30.26,10.0,WSW,6.9,-,N/A,,Clear,250,2013-01-04 08:53:00
3:53 AM,16.0,6.1,65,30.25,10.0,West,3.5,-,N/A,,Clear,280,2013-01-04 09:53:00
4:53 AM,12.0,5.0,73,30.25,10.0,Calm,Calm,-,N/A,,Clear,0,2013-01-04 10:53:00
5:53 AM,5.0,1.0,84,30.27,10.0,Calm,Calm,-,N/A,,Clear,0,2013-01-04 11:53:00
6:53 AM,5.0,-0.0,80,30.28,10.0,Calm,Calm,-,N/A,,Clear,0,2013-01-04 12:53:00
7:53 AM,6.1,1.0,80,30.30,10.0,Calm,Calm,-,N/A,,Clear,0,2013-01-04 13:53:00
8:53 AM,8.1,1.9,76,30.30,10.0,Calm,Calm,-,N/A,,Clear,0,2013-01-04 14:53:00
9:53 AM,17.1,9.0,71,30.30,10.0,Calm,Calm,-,N/A,,Clear,0,2013-01-04 15:53:00
10:53 AM,26.1,14.0,60,30.28,10.0,Calm,Calm,-,N/A,,Clear,0,2013-01-04 16:53:00
11:53 AM,36.0,15.1,43,30.24,10.0,Calm,Calm,-,N/A,,Clear,0,2013-01-04 17:53:00
12:53 PM,37.0,15.1,41,30.20,10.0,SW,5.8,-,N/A,,Clear,230,2013-01-04 18:53:00
1:53 PM,41.0,19.0,41,30.17,10.0,South,8.1,-,N/A,,Clear,190,2013-01-04 19:53:00
2:53 PM,43.0,15.1,32,30.15,10.0,SSW,3.5,-,N/A,,Clear,210,2013-01-04 20:53:00
3:53 PM,45.0,15.1,30,30.13,10.0,Calm,Calm,-,N/A,,Clear,0,2013-01-04 21:53:00
4:53 PM,41.0,15.1,35,30.14,10.0,Calm,Calm,-,N/A,,Clear,0,2013-01-04 22:53:00
5:53 PM,28.0,17.1,63,30.17,10.0,Calm,Calm,-,N/A,,Clear,0,2013-01-04 23:53:00
6:53 PM,21.0,15.1,78,30.20,10.0,Calm,Calm,-,N/A,,Clear,0,2013-01-05 00:53:00
7:53 PM,21.0,15.1,78,30.19,10.0,Calm,Calm,-,N/A,,Clear,0,2013-01-05 01:53:00
8:53 PM,19.9,14.0,78,30.17,10.0,Calm,Calm,-,N/A,,Clear,0,2013-01-05 02:53:00
9:53 PM,24.1,17.1,75,30.14,10.0,Calm,Calm,-,N/A,,Clear,0,2013-01-05 03:53:00
10:53 PM,26.1,16.0,66,30.11,10.0,Calm,Calm,-,N/A,,Clear,0,2013-01-05 04:53:00
11:53 PM,27.0,15.1,61,30.06,10.0,Calm,Calm,-,N/A,,Clear,0,2013-01-05 05:53:00